TimeCDT,TemperatureF,Dew PointF,Humidity,Sea Level PressureIn,VisibilityMPH,Wind Direction,Wind SpeedMPH,Gust SpeedMPH,PrecipitationIn,Events,Conditions,WindDirDegrees,DateUTC
12:15 AM,62.6,44.6,52,30.09,10.0,SE,12.7,-,N/A,,Clear,130,2011-10-10 05:15:00
12:35 AM,62.6,44.6,52,30.09,10.0,SE,11.5,-,N/A,,Clear,130,2011-10-10 05:35:00
12:55 AM,62.6,44.6,52,30.08,10.0,SE,11.5,-,N/A,,Clear,130,2011-10-10 05:55:00
1:15 AM,60.8,44.6,55,30.08,10.0,SE,11.5,-,N/A,,Clear,130,2011-10-10 06:15:00
1:35 AM,60.8,44.6,55,30.08,10.0,SE,11.5,-,N/A,,Clear,140,2011-10-10 06:35:00
1:55 AM,62.6,44.6,52,30.07,10.0,SE,13.8,-,N/A,,Clear,140,2011-10-10 06:55:00
2:15 AM,62.6,44.6,52,30.07,10.0,SE,15.0,-,N/A,,Clear,140,2011-10-10 07:15:00
2:35 AM,60.8,44.6,55,30.07,10.0,SSE,15.0,19.6,N/A,,Clear,150,2011-10-10 07:35:00
2:55 AM,60.8,44.6,55,30.06,10.0,SE,13.8,-,N/A,,Clear,140,2011-10-10 07:55:00
3:35 AM,60.8,44.6,55,30.06,10.0,SSE,12.7,-,N/A,,Clear,150,2011-10-10 08:35:00
3:55 AM,60.8,44.6,55,30.06,10.0,SSE,11.5,-,N/A,,Clear,160,2011-10-10 08:55:00
4:15 AM,59.0,44.6,59,30.05,10.0,SSE,9.2,-,N/A,,Clear,160,2011-10-10 09:15:00
4:35 AM,57.2,44.6,63,30.05,10.0,SSE,9.2,-,N/A,,Clear,160,2011-10-10 09:35:00
4:55 AM,57.2,44.6,63,30.05,10.0,SSE,9.2,-,N/A,,Clear,150,2011-10-10 09:55:00
5:15 AM,57.2,44.6,63,30.05,10.0,SE,9.2,-,N/A,,Clear,140,2011-10-10 10:15:00
5:35 AM,57.2,44.6,63,30.05,10.0,SE,9.2,-,N/A,,Clear,140,2011-10-10 10:35:00
5:55 AM,55.4,44.6,67,30.05,10.0,SE,9.2,-,N/A,,Clear,140,2011-10-10 10:55:00
6:15 AM,55.4,44.6,67,30.05,10.0,SE,8.1,-,N/A,,Clear,140,2011-10-10 11:15:00
6:35 AM,55.4,44.6,67,30.04,10.0,SE,9.2,-,N/A,,Clear,140,2011-10-10 11:35:00
6:55 AM,55.4,44.6,67,30.04,10.0,SE,9.2,-,N/A,,Clear,140,2011-10-10 11:55:00
7:15 AM,55.4,44.6,67,30.04,10.0,SSE,9.2,-,N/A,,Clear,150,2011-10-10 12:15:00
7:35 AM,55.4,44.6,67,30.04,10.0,SSE,9.2,-,N/A,,Clear,150,2011-10-10 12:35:00
8:15 AM,55.4,44.6,67,30.03,7.0,SSE,8.1,-,N/A,,Clear,150,2011-10-10 13:15:00
8:35 AM,57.2,44.6,63,30.04,10.0,SE,6.9,-,N/A,,Clear,140,2011-10-10 13:35:00
8:55 AM,57.2,44.6,63,30.03,10.0,SE,8.1,-,N/A,,Clear,140,2011-10-10 13:55:00
9:15 AM,60.8,44.6,55,30.03,10.0,SSE,9.2,-,N/A,,Clear,150,2011-10-10 14:15:00
9:35 AM,60.8,44.6,55,30.03,7.0,SSE,9.2,-,N/A,,Clear,160,2011-10-10 14:35:00
10:35 AM,64.4,44.6,49,30.03,10.0,South,11.5,-,N/A,,Scattered Clouds,170,2011-10-10 15:35:00
10:55 AM,64.4,44.6,49,30.03,10.0,SSE,10.4,-,N/A,,Scattered Clouds,160,2011-10-10 15:55:00
11:35 AM,68.0,44.6,43,30.02,10.0,SSE,12.7,-,N/A,,Clear,160,2011-10-10 16:35:00
11:55 AM,66.2,44.6,46,30.03,10.0,South,13.8,-,N/A,,Scattered Clouds,170,2011-10-10 16:55:00
12:15 PM,68.0,44.6,43,30.02,10.0,South,11.5,-,N/A,,Scattered Clouds,190,2011-10-10 17:15:00
12:35 PM,69.8,44.6,40,30.01,10.0,South,11.5,-,N/A,,Clear,170,2011-10-10 17:35:00
1:15 PM,66.2,48.2,52,30.01,7.0,SW,12.7,-,N/A,Rain,Light Rain,220,2011-10-10 18:15:00
1:35 PM,64.4,51.8,64,30.00,10.0,WSW,11.5,-,N/A,Rain,Light Rain,240,2011-10-10 18:35:00
1:55 PM,62.6,53.6,72,30.00,10.0,WSW,13.8,-,N/A,,Overcast,240,2011-10-10 18:55:00
2:15 PM,62.6,53.6,72,30.00,7.0,SW,11.5,-,N/A,Rain,Light Rain,230,2011-10-10 19:15:00
2:35 PM,60.8,55.4,82,29.99,10.0,SW,10.4,-,N/A,Rain,Light Rain,230,2011-10-10 19:35:00
3:15 PM,62.6,55.4,77,29.98,10.0,SSW,10.4,-,0.01,Rain,Light Rain,210,2011-10-10 20:15:00
3:55 PM,64.4,55.4,73,29.97,10.0,South,12.7,-,0.01,,Mostly Cloudy,190,2011-10-10 20:55:00
4:15 PM,66.2,55.4,68,29.97,10.0,South,12.7,-,N/A,,Scattered Clouds,170,2011-10-10 21:15:00
4:35 PM,66.2,55.4,68,29.96,10.0,South,9.2,-,N/A,,Clear,180,2011-10-10 21:35:00
4:55 PM,66.2,55.4,68,29.95,10.0,South,10.4,16.1,N/A,,Clear,170,2011-10-10 21:55:00
5:15 PM,66.2,53.6,64,29.94,10.0,South,10.4,-,N/A,,Clear,170,2011-10-10 22:15:00
5:35 PM,66.2,53.6,64,29.94,10.0,South,9.2,-,N/A,,Clear,180,2011-10-10 22:35:00
5:55 PM,64.4,53.6,68,29.94,10.0,South,9.2,-,N/A,,Clear,170,2011-10-10 22:55:00
6:15 PM,64.4,53.6,68,29.94,10.0,SSE,8.1,-,N/A,,Clear,160,2011-10-10 23:15:00
6:35 PM,62.6,53.6,72,29.94,10.0,SSE,5.8,-,N/A,,Clear,160,2011-10-10 23:35:00
7:15 PM,60.8,53.6,77,29.94,10.0,SSE,6.9,-,N/A,,Clear,160,2011-10-11 00:15:00
7:35 PM,60.8,51.8,72,29.94,10.0,SSE,8.1,-,N/A,,Clear,150,2011-10-11 00:35:00
7:55 PM,57.2,51.8,82,29.94,10.0,SSE,8.1,-,N/A,,Clear,150,2011-10-11 00:55:00
8:15 PM,59.0,51.8,77,29.95,10.0,SSE,9.2,-,N/A,,Clear,160,2011-10-11 01:15:00
8:35 PM,60.8,51.8,72,29.94,10.0,SSE,9.2,-,N/A,,Clear,150,2011-10-11 01:35:00
8:55 PM,60.8,51.8,72,29.94,10.0,SSE,9.2,-,N/A,,Clear,160,2011-10-11 01:55:00
9:15 PM,60.8,51.8,72,29.95,10.0,SSE,10.4,-,N/A,,Clear,160,2011-10-11 02:15:00
9:35 PM,59.0,51.8,77,29.95,10.0,South,10.4,-,N/A,,Clear,170,2011-10-11 02:35:00
9:55 PM,57.2,51.8,82,29.95,10.0,South,10.4,-,N/A,,Clear,170,2011-10-11 02:55:00
10:35 PM,55.4,50.0,82,29.95,10.0,South,8.1,-,N/A,,Clear,180,2011-10-11 03:35:00
10:55 PM,55.4,48.2,77,29.95,10.0,South,9.2,-,N/A,,Clear,180,2011-10-11 03:55:00
11:15 PM,53.6,48.2,82,29.95,7.0,South,5.8,-,N/A,,Clear,180,2011-10-11 04:15:00
11:35 PM,51.8,48.2,88,29.94,7.0,South,6.9,-,N/A,,Clear,170,2011-10-11 04:35:00
11:55 PM,53.6,50.0,88,29.94,7.0,South,8.1,-,N/A,,Clear,180,2011-10-11 04:55:00